Weather History for Erwin, NC

Change the Weather History Date:

Friday, May 17, 2013

  Actual Average Record
Temperature  
Mean Temperature 76 °F -  
Max Temperature 88 °F 81 °F 91 °F (1964)
Min Temperature 64 °F 55 °F 38 °F (1984)
Cooling Degree Days 11    
Growing Degree Days 26 (Base 50)    
Moisture  
Dew Point 61 °F    
Average Humidity 65    
Maximum Humidity 94    
Minimum Humidity 29    
Precipitation  
Precipitation 0.02 in - - ()
Sea Level Pressure  
Sea Level Pressure 30.05 in    
Wind  
Wind Speed 1 mph (SE)    
Max Wind Speed 7 mph    
Max Gust Speed -    
Visibility 10 miles    
Events Rain    
Averages and records for this station are not official NWS values.
T = Trace of Precipitation, MM = Missing Value Source: NWS Daily Summary

Daily Weather History Graph

Daily Weather History Graph

Search for Another Location

Airport:

Trip Planner

Search our weather history database for the weather conditions in past years. The results will help you decide how hot, cold, wet, or windy it might be!

Date:

Astronomy

May. 17, 2013 Rise Set
Actual Time 6:08 AM EDT 8:14 PM EDT
Civil Twilight 5:40 AM EDT 8:42 PM EDT
Nautical Twilight 5:05 AM EDT 9:17 PM EDT
Astronomical Twilight 4:28 AM EDT 9:54 PM EDT
Moon 12:33 PM EDT (5/17) 1:11 AM EDT (5/17)
Length of Visible Light 15h 02m
Length of Day
14h 05m
Waxing Crescent, 45% of the Moon is Illuminated
May 17
Waxing Crescent
May 18
First Quarter
May 25
Full
May 31
Last Quarter
Jun 8
New

Hourly Weather History & Observations

Time (EDT) Temp. Heat Index Dew Point Humidity Pressure Visibility Wind Dir Wind Speed Gust Speed Precip Events Conditions
12:15 AM 71.8 °F - 59.7 °F 66% 30.00 in 10.0 mi SW 3.5 mph - N/A   Clear
12:35 AM 71.6 °F - 59.9 °F 66% 30.00 in 10.0 mi Calm Calm - N/A   Clear
12:55 AM 70.9 °F - 59.9 °F 68% 30.01 in 10.0 mi Calm Calm - N/A   Clear
1:15 AM 69.4 °F - 60.1 °F 72% 30.01 in 10.0 mi Calm Calm - N/A   Clear
1:35 AM 69.1 °F - 60.3 °F 73% 30.00 in 10.0 mi Calm Calm - N/A   Clear
1:55 AM 68.4 °F - 60.4 °F 76% 29.99 in 10.0 mi Calm Calm - N/A   Clear
2:15 AM 68.9 °F - 61.0 °F 76% 30.00 in 10.0 mi Calm Calm - N/A   Clear
2:35 AM 68.4 °F - 60.8 °F 77% 30.00 in 10.0 mi Calm Calm - N/A   Clear
2:55 AM 68.0 °F - 60.8 °F 78% 30.00 in 10.0 mi Calm Calm - N/A   Clear
3:15 AM 66.0 °F - 60.6 °F 83% 30.00 in 10.0 mi Calm Calm - N/A   Clear
3:35 AM 66.6 °F - 60.6 °F 81% 30.00 in 10.0 mi Calm Calm - N/A   Clear
3:55 AM 66.7 °F - 60.8 °F 81% 30.01 in 10.0 mi Calm Calm - N/A   Clear
4:15 AM 65.1 °F - 60.6 °F 85% 30.02 in 10.0 mi Calm Calm - N/A   Clear
4:35 AM 65.7 °F - 61.5 °F 86% 30.02 in 10.0 mi Calm Calm - N/A   Clear
4:55 AM 64.8 °F - 63.0 °F 94% 30.02 in 10.0 mi Calm Calm - N/A   Clear
5:15 AM 65.7 °F - 63.5 °F 93% 30.03 in 10.0 mi Calm Calm - N/A   Clear
5:35 AM 65.7 °F - 62.8 °F 90% 30.03 in 10.0 mi Calm Calm - N/A   Clear
5:55 AM 66.7 °F - 62.8 °F 87% 30.04 in 10.0 mi Calm Calm - N/A   Clear
6:15 AM 66.2 °F - 62.2 °F 87% 30.04 in 10.0 mi Calm Calm - N/A   Clear
6:35 AM 66.2 °F - 62.6 °F 88% 30.05 in 10.0 mi Calm Calm - N/A   Clear
6:55 AM 65.7 °F - 63.3 °F 92% 30.07 in 10.0 mi Calm Calm - N/A   Clear
7:15 AM 66.4 °F - 63.7 °F 91% 30.07 in 10.0 mi Calm Calm - N/A   Clear
7:35 AM 65.8 °F - 63.7 °F 93% 30.07 in 10.0 mi Calm Calm - N/A   Clear
8:15 AM 67.6 °F - 64.9 °F 91% 30.08 in 10.0 mi Calm Calm - N/A   Clear
8:35 AM 68.9 °F - 63.0 °F 81% 30.09 in 10.0 mi South 3.5 mph - N/A   Clear
8:55 AM 70.3 °F - 63.0 °F 77% 30.09 in 10.0 mi Calm Calm - N/A   Clear
9:15 AM 72.3 °F - 62.6 °F 71% 30.09 in 10.0 mi Calm Calm - N/A   Clear
9:35 AM 74.3 °F - 63.3 °F 68% 30.09 in 10.0 mi Calm Calm - N/A   Clear
9:55 AM 74.5 °F - 62.1 °F 65% 30.09 in 10.0 mi Calm Calm - N/A   Clear
10:15 AM 76.3 °F - 61.9 °F 61% 30.09 in 10.0 mi Calm Calm - N/A   Clear
10:35 AM 77.7 °F - 61.9 °F 58% 30.09 in 10.0 mi Calm Calm - N/A   Clear
10:55 AM 78.8 °F - 60.4 °F 53% 30.09 in 10.0 mi Calm Calm - N/A   Clear
11:15 AM 80.1 °F 80.8 °F 59.2 °F 49% 30.09 in 10.0 mi SSE 3.5 mph - N/A   Clear
11:35 AM 82.2 °F 82.1 °F 58.3 °F 44% 30.09 in 10.0 mi East 3.5 mph - N/A   Clear
11:55 AM 82.6 °F 82.3 °F 57.9 °F 43% 30.09 in 10.0 mi ENE 5.8 mph - N/A   Clear
12:15 PM 84.7 °F 83.9 °F 57.2 °F 39% 30.09 in 10.0 mi East 3.5 mph - N/A   Clear
12:35 PM 85.6 °F 84.1 °F 55.4 °F 35% 30.08 in 10.0 mi Calm Calm - N/A   Clear
12:55 PM 84.6 °F 83.4 °F 55.6 °F 37% 30.08 in 10.0 mi Calm Calm - N/A   Clear
1:15 PM 84.9 °F 84.4 °F 59.0 °F 41% 30.08 in 10.0 mi South 6.9 mph - N/A   Clear
1:35 PM 85.1 °F 84.6 °F 58.6 °F 41% 30.07 in 10.0 mi South 6.9 mph - N/A   Scattered Clouds
1:55 PM 85.5 °F 84.0 °F 55.2 °F 35% 30.07 in 10.0 mi Calm Calm - N/A   Scattered Clouds
2:15 PM 86.2 °F - 52.7 °F 32% 30.07 in 10.0 mi Calm Calm - N/A   Clear
2:35 PM 86.2 °F 84.2 °F 53.2 °F 32% 30.06 in 10.0 mi SSE 3.5 mph - N/A   Clear
2:55 PM 86.9 °F - 51.6 °F 30% 30.06 in 10.0 mi SSE 5.8 mph - N/A   Clear
3:15 PM 86.9 °F - 51.1 °F 29% 30.06 in 10.0 mi South 4.6 mph - N/A   Clear
3:35 PM 87.3 °F - 52.3 °F 30% 30.05 in 10.0 mi ESE 3.5 mph - N/A   Clear
3:55 PM 88.0 °F 86.3 °F 55.6 °F 33% 30.05 in 10.0 mi South 3.5 mph - N/A   Scattered Clouds
4:15 PM 87.4 °F 85.7 °F 54.9 °F 33% 30.04 in 10.0 mi Calm Calm - N/A   Clear
4:35 PM 87.4 °F 86.1 °F 56.3 °F 35% 30.04 in 10.0 mi SE 4.6 mph - N/A   Scattered Clouds
4:55 PM 86.4 °F 85.2 °F 57.0 °F 37% 30.04 in 10.0 mi Calm Calm - N/A   Mostly Cloudy
5:15 PM 86.0 °F 85.4 °F 59.4 °F 40% 30.04 in 7.0 mi SE 4.6 mph - 0.01 in Rain Rain
5:35 PM 81.1 °F 82.8 °F 64.8 °F 57% 30.04 in 10.0 mi East 4.6 mph - 0.02 in   Overcast
5:55 PM 82.4 °F 83.5 °F 63.0 °F 52% 30.04 in 10.0 mi ENE 5.8 mph - 0.02 in   Mostly Cloudy
6:15 PM 82.2 °F 83.3 °F 63.0 °F 52% 30.04 in 10.0 mi East 4.6 mph - N/A   Scattered Clouds
6:35 PM 80.2 °F 82.0 °F 64.9 °F 59% 30.03 in 10.0 mi ENE 4.6 mph - N/A   Clear
6:55 PM 79.9 °F - 65.1 °F 61% 30.03 in 10.0 mi East 4.6 mph - N/A   Mostly Cloudy
7:15 PM 79.3 °F - 65.1 °F 62% 30.03 in 10.0 mi East 3.5 mph - N/A   Scattered Clouds
7:35 PM 78.4 °F - 66.2 °F 66% 30.04 in 10.0 mi Calm Calm - N/A   Clear
7:55 PM 78.4 °F - 65.3 °F 64% 30.04 in 10.0 mi Calm Calm - N/A   Mostly Cloudy
8:15 PM 77.9 °F - 66.2 °F 67% 30.04 in 10.0 mi Calm Calm - N/A   Scattered Clouds
8:35 PM 77.4 °F - 67.1 °F 71% 30.05 in 10.0 mi Calm Calm - N/A   Clear
8:55 PM 76.3 °F - 67.5 °F 74% 30.05 in 10.0 mi Calm Calm - N/A   Clear
9:15 PM 75.6 °F - 66.9 °F 74% 30.05 in 10.0 mi Calm Calm - N/A   Clear
9:35 PM 74.7 °F - 68.0 °F 80% 30.06 in 10.0 mi Calm Calm - N/A   Clear
9:55 PM 74.1 °F - 66.6 °F 77% 30.07 in 10.0 mi Calm Calm - N/A   Scattered Clouds
10:15 PM 73.6 °F - 66.6 °F 79% 30.07 in 10.0 mi Calm Calm - N/A   Mostly Cloudy
10:35 PM 73.6 °F - 66.4 °F 78% 30.08 in 10.0 mi Calm Calm - N/A   Overcast
10:55 PM 71.8 °F - 66.4 °F 83% 30.09 in 10.0 mi Calm Calm - N/A   Overcast
11:15 PM 72.5 °F - 64.2 °F 75% 30.09 in 10.0 mi Calm Calm - N/A   Mostly Cloudy
11:35 PM 72.0 °F - 63.7 °F 75% 30.09 in 10.0 mi South 3.5 mph - N/A   Scattered Clouds
11:55 PM 71.2 °F - 62.8 °F 75% 30.09 in 10.0 mi South 3.5 mph - N/A   Clear